Versailles, OH

1:15 AM EST on December 09, 2016 (GMT -0500)
Darke County

Weather History for KVES - May, 2014

Change the Weather History Date:

Monday, May 5, 2014

  Actual Average (KDAY) Record (KDAY)
Temperature  
Mean Temperature 51 °F -  
Max Temperature 60 °F 69 °F 90 °F (1952)
Min Temperature 42 °F 47 °F 30 °F (1907)
Degree Days  
Heating Degree Days 14    
Growing Degree Days 1 (Base 50)    
Moisture  
Dew Point 37 °F    
Average Humidity 60    
Maximum Humidity 76    
Minimum Humidity 45    
Precipitation  
Precipitation 0.00 in - - ()
Sea Level Pressure  
Sea Level Pressure 29.96 in    
Wind  
Wind Speed 8 mph (East)    
Max Wind Speed 17 mph    
Max Gust Speed 24 mph    
Visibility 10 miles    
Events Rain , Thunderstorm    
Averages and records for this station are not official NWS values.
T = Trace of Precipitation, MM = Missing Value Source: NWS Daily Summary

Daily Weather History Graph

Daily Weather History Graph

Search for Another Location

Airport or City:

Trip Planner

Search our weather history database for the weather conditions in past years. The results will help you decide how hot, cold, wet, or windy it might be!

Date:

Astronomy

May. 05, 2014 Rise Set
Actual Time 6:32 AM EDT 8:37 PM EDT
Civil Twilight 6:03 AM EDT 9:07 PM EDT
Nautical Twilight 5:26 AM EDT 9:43 PM EDT
Astronomical Twilight 4:47 AM EDT 10:23 PM EDT
Moon 11:51 AM EDT (5/5) 1:20 AM EDT (5/5)
Length of Visible Light 15h 04m
Length of Day
14h 04m
Waxing Crescent, 36% of the Moon is Illuminated
May 5
Waxing Crescent
May 6
First Quarter
May 14
Full
May 21
Last Quarter
May 28
New

Hourly Weather History & Observations

Time (EDT) Temp. Windchill Dew Point Humidity Pressure Visibility Wind Dir Wind Speed Gust Speed Precip Events Conditions
12:15 AM 46.4 °F 45.2 °F 32.0 °F 57% 30.05 in 10.0 mi North 3.5 mph - N/A   Unknown
12:35 AM 46.4 °F 45.2 °F 33.8 °F 62% 30.05 in 10.0 mi NNE 3.5 mph - N/A   Unknown
12:55 AM 44.6 °F 41.4 °F 33.8 °F 66% 30.04 in 10.0 mi NNE 5.8 mph - N/A   Unknown
1:15 AM 44.6 °F 41.4 °F 33.8 °F 66% 30.05 in 10.0 mi NNE 5.8 mph - N/A   Unknown
1:35 AM 44.6 °F 42.2 °F 33.8 °F 66% 30.04 in 10.0 mi NE 4.6 mph - N/A   Unknown
1:55 AM 42.8 °F 39.3 °F 33.8 °F 70% 30.04 in 10.0 mi NNE 5.8 mph - N/A   Unknown
2:15 AM 44.6 °F 43.1 °F 35.6 °F 71% 30.04 in 10.0 mi ENE 3.5 mph - N/A   Unknown
2:35 AM 44.6 °F 41.4 °F 32.0 °F 61% 30.01 in 10.0 mi East 5.8 mph - N/A   Unknown
2:55 AM 44.6 °F 42.2 °F 32.0 °F 61% 29.99 in 10.0 mi East 4.6 mph - N/A   Unknown
3:15 AM 44.6 °F 41.4 °F 32.0 °F 61% 30.01 in 10.0 mi East 5.8 mph - N/A   Unknown
3:35 AM 44.6 °F 42.2 °F 32.0 °F 61% 30.02 in 10.0 mi ESE 4.6 mph - N/A   Unknown
3:55 AM 44.6 °F 40.7 °F 32.0 °F 61% 30.01 in 10.0 mi East 6.9 mph - N/A Thunderstorm Unknown
4:15 AM 44.6 °F 40.7 °F 33.8 °F 66% 30.01 in 10.0 mi East 6.9 mph - N/A Rain Light Rain
4:35 AM 44.6 °F 41.4 °F 33.8 °F 66% 30.01 in 10.0 mi East 5.8 mph - N/A   Unknown
4:55 AM 42.8 °F 40.1 °F 35.6 °F 76% 30.02 in 10.0 mi East 4.6 mph - N/A Thunderstorm Unknown
5:15 AM 44.6 °F 42.2 °F 35.6 °F 71% 30.02 in 10.0 mi SE 4.6 mph - N/A   Unknown
5:35 AM 44.6 °F 40.2 °F 35.6 °F 71% 30.01 in 10.0 mi East 8.1 mph - N/A Thunderstorm Thunderstorm
6:15 AM 44.6 °F 39.2 °F 35.6 °F 71% 30.01 in 10.0 mi ESE 10.4 mph - N/A   Unknown
6:35 AM 44.6 °F 40.2 °F 35.6 °F 71% 30.01 in 10.0 mi ESE 8.1 mph - N/A Thunderstorm Unknown
6:55 AM 44.6 °F 38.8 °F 35.6 °F 71% 30.03 in 10.0 mi ESE 11.5 mph - N/A Thunderstorm Thunderstorm
7:15 AM 44.6 °F 38.8 °F 35.6 °F 71% 30.02 in 10.0 mi ESE 11.5 mph - N/A   Unknown
7:35 AM 46.4 °F 42.4 °F 35.6 °F 66% 30.04 in 10.0 mi SE 8.1 mph - N/A Thunderstorm Unknown
7:55 AM 44.6 °F 38.4 °F 35.6 °F 71% 30.02 in 10.0 mi ESE 12.7 mph - N/A   Unknown
8:15 AM 44.6 °F 37.8 °F 35.6 °F 71% 29.99 in 10.0 mi ESE 15.0 mph - N/A   Unknown
8:35 AM 46.4 °F 41.9 °F 35.6 °F 66% 30.02 in 10.0 mi ESE 9.2 mph - N/A   Unknown
8:55 AM 46.4 °F 40.7 °F 35.6 °F 66% 30.00 in 10.0 mi SSE 12.7 mph - N/A   Unknown
9:15 AM 46.4 °F 39.5 °F 35.6 °F 66% 29.95 in 10.0 mi SSE 17.3 mph 24.2 mph N/A   Unknown
9:35 AM 46.4 °F 41.9 °F 33.8 °F 62% 30.01 in 10.0 mi SSE 9.2 mph - N/A   Unknown
9:55 AM 46.4 °F 41.9 °F 35.6 °F 66% 30.00 in 10.0 mi SE 9.2 mph 16.1 mph N/A Rain , Thunderstorm Light Thunderstorms and Rain
10:15 AM 46.4 °F 41.5 °F 35.6 °F 66% 29.98 in 10.0 mi ESE 10.4 mph 17.3 mph N/A   Unknown
10:35 AM 46.4 °F 41.1 °F 37.4 °F 71% 29.98 in 10.0 mi SE 11.5 mph - N/A   Unknown
10:55 AM 46.4 °F 40.4 °F 35.6 °F 66% 29.98 in 10.0 mi SE 13.8 mph - N/A   Unknown
11:15 AM 46.4 °F 40.4 °F 35.6 °F 66% 29.98 in 10.0 mi ESE 13.8 mph 18.4 mph N/A   Unknown
11:35 AM 48.2 °F - 35.6 °F 62% 29.98 in 10.0 mi SE 15.0 mph 20.7 mph N/A   Unknown
11:55 AM 51.8 °F - 37.4 °F 58% 29.97 in 10.0 mi ESE 17.3 mph 21.9 mph N/A   Unknown
12:15 PM 51.8 °F - 37.4 °F 58% 29.97 in 10.0 mi ESE 15.0 mph - N/A   Unknown
12:35 PM 53.6 °F - 37.4 °F 54% 29.95 in 10.0 mi ESE 13.8 mph 21.9 mph N/A   Unknown
12:55 PM 53.6 °F - 37.4 °F 54% 29.95 in 10.0 mi ESE 15.0 mph 19.6 mph N/A   Unknown
1:15 PM 53.6 °F - 37.4 °F 54% 29.94 in 10.0 mi East 13.8 mph 20.7 mph N/A   Unknown
1:35 PM 55.4 °F - 37.4 °F 51% 29.93 in 10.0 mi ESE 15.0 mph 20.7 mph N/A   Unknown
1:55 PM 55.4 °F - 39.2 °F 54% 29.93 in 10.0 mi East 16.1 mph 20.7 mph N/A   Unknown
2:15 PM 55.4 °F - 37.4 °F 51% 29.93 in 10.0 mi East 12.7 mph - N/A   Unknown
2:35 PM 57.2 °F - 37.4 °F 48% 29.93 in 10.0 mi East 15.0 mph 21.9 mph N/A   Unknown
2:55 PM 59.0 °F - 41.0 °F 51% 29.92 in 10.0 mi East 16.1 mph 19.6 mph N/A   Unknown
3:15 PM 59.0 °F - 41.0 °F 51% 29.91 in 10.0 mi East 13.8 mph - N/A   Unknown
3:35 PM 59.0 °F - 41.0 °F 51% 29.92 in 10.0 mi East 10.4 mph 20.7 mph N/A   Unknown
3:55 PM 60.8 °F - 41.0 °F 48% 29.91 in 10.0 mi East 13.8 mph 18.4 mph N/A   Unknown
4:15 PM 59.0 °F - 41.0 °F 51% 29.90 in 10.0 mi East 12.7 mph 17.3 mph N/A   Unknown
4:35 PM 59.0 °F - 41.0 °F 51% 29.90 in 10.0 mi East 11.5 mph - N/A   Unknown
4:55 PM 59.0 °F - 41.0 °F 51% 29.90 in 10.0 mi East 11.5 mph - N/A   Unknown
5:15 PM 59.0 °F - 41.0 °F 51% 29.90 in 10.0 mi ENE 9.2 mph - N/A   Unknown
5:35 PM 59.0 °F - 41.0 °F 51% 29.90 in 10.0 mi ESE 11.5 mph 16.1 mph N/A   Unknown
5:55 PM 59.0 °F - 41.0 °F 51% 29.89 in 10.0 mi East 9.2 mph - N/A   Unknown
6:15 PM 59.0 °F - 41.0 °F 51% 29.89 in 10.0 mi East 10.4 mph - N/A   Unknown
6:35 PM 59.0 °F - 39.2 °F 48% 29.89 in 10.0 mi East 9.2 mph - N/A   Unknown
6:55 PM 59.0 °F - 37.4 °F 45% 29.89 in 10.0 mi East 8.1 mph - N/A   Unknown
7:15 PM 59.0 °F - 37.4 °F 45% 29.89 in 10.0 mi East 9.2 mph - N/A   Unknown
7:35 PM 57.2 °F - 37.4 °F 48% 29.88 in 10.0 mi East 8.1 mph - N/A   Unknown
7:55 PM 55.4 °F - 37.4 °F 51% 29.88 in 10.0 mi ENE 4.6 mph - N/A   Unknown
8:15 PM 55.4 °F - 37.4 °F 51% 29.89 in 10.0 mi ENE 3.5 mph - N/A   Unknown
8:35 PM 53.6 °F - 37.4 °F 54% 29.90 in 10.0 mi ENE 3.5 mph - N/A   Unknown
8:55 PM 51.8 °F - 37.4 °F 58% 29.90 in 10.0 mi NE 3.5 mph - N/A   Unknown
9:15 PM 50.0 °F - 37.4 °F 62% 29.90 in 10.0 mi Calm Calm - N/A   Unknown
9:35 PM 50.0 °F - 37.4 °F 62% 29.91 in 10.0 mi NE 5.8 mph - N/A   Unknown
9:55 PM 50.0 °F - 37.4 °F 62% 29.91 in 10.0 mi ENE 3.5 mph - N/A   Unknown
10:15 PM 50.0 °F - 37.4 °F 62% 29.92 in 10.0 mi ENE 4.6 mph - N/A   Unknown
10:35 PM 50.0 °F - 37.4 °F 62% 29.92 in 10.0 mi ENE 3.5 mph - N/A   Unknown
10:55 PM 48.2 °F - 37.4 °F 66% 29.92 in 10.0 mi NE 4.6 mph - N/A   Unknown
11:15 PM 46.4 °F 43.5 °F 37.4 °F 71% 29.93 in 10.0 mi NE 5.8 mph - N/A   Unknown
11:35 PM 46.4 °F 44.3 °F 37.4 °F 71% 29.93 in 10.0 mi NE 4.6 mph - N/A   Unknown
11:55 PM 46.4 °F 42.9 °F 37.4 °F 71% 29.93 in 10.0 mi NE 6.9 mph - N/A   Unknown